North Bennington, VT

6:54 AM EST on December 06, 2016 (GMT -0500)
Morse State

Weather History for KDDH - October, 2012

Change the Weather History Date:

Thursday, October 4, 2012

  Actual Average Record
Temperature  
Mean Temperature 61 °F 52 °F  
Max Temperature 70 °F 63 °F 78 °F (2001)
Min Temperature 51 °F 40 °F 36 °F (2003)
Degree Days  
Heating Degree Days 4 13  
Month to date heating degree days 21 51  
Since 1 July heating degree days 236 329  
Cooling Degree Days 0 0  
Month to date cooling degree days 2 0  
Year to date cooling degree days 476 311  
Growing Degree Days 11 (Base 50)    
Moisture  
Dew Point 62 °F    
Average Humidity 94    
Maximum Humidity 100    
Minimum Humidity 87    
Precipitation  
Precipitation 0.41 in 0.12 in 0.67 in (2013)
Month to date precipitation 0.50 0.51  
Year to date precipitation 25.11 31.62  
Sea Level Pressure  
Sea Level Pressure 30.10 in    
Wind  
Wind Speed 2 mph (SW)    
Max Wind Speed 9 mph    
Max Gust Speed 14 mph    
Visibility 4 miles    
Events Fog , Rain    
T = Trace of Precipitation, MM = Missing Value Source: NWS Daily Summary

Daily Weather History Graph

Daily Weather History Graph

Search for Another Location

Airport or City:

Trip Planner

Search our weather history database for the weather conditions in past years. The results will help you decide how hot, cold, wet, or windy it might be!

Date:

Astronomy

Oct. 04, 2012 Rise Set
Actual Time 6:54 AM EDT 6:28 PM EDT
Civil Twilight 6:25 AM EDT 6:56 PM EDT
Nautical Twilight 5:53 AM EDT 7:29 PM EDT
Astronomical Twilight 5:19 AM EDT 8:02 PM EDT
Moon 8:55 PM EDT (10/4) 11:15 AM EDT (10/4)
Length of Visible Light 12h 30m
Length of Day
11h 34m
Waning Gibbous, 82% of the Moon is Illuminated
Oct 4
Waning Gibbous
Oct 8
Last Quarter
Oct 15
New
Oct 21
First Quarter
Oct 29
Full

Hourly Weather History & Observations

Time (EDT) Temp. Dew Point Humidity Pressure Visibility Wind Dir Wind Speed Gust Speed Precip Events Conditions
12:13 AM 64.4 °F 62.6 °F 94% 30.13 in 3.0 mi Calm Calm - N/A   Overcast
12:45 AM 64.4 °F 62.6 °F 94% 30.13 in 2.0 mi Calm Calm - N/A   Overcast
12:54 AM 64.9 °F 63.0 °F 93% 30.12 in 7.0 mi Calm Calm - N/A   Overcast
1:02 AM 64.4 °F 62.6 °F 94% 30.12 in 2.5 mi Calm Calm - N/A   Overcast
1:10 AM 64.4 °F 62.6 °F 94% 30.12 in 1.2 mi Calm Calm - N/A   Overcast
1:25 AM 64.4 °F 62.6 °F 94% 30.13 in 2.0 mi Calm Calm - N/A   Overcast
1:31 AM 64.4 °F 62.6 °F 94% 30.13 in 3.0 mi Calm Calm - N/A   Overcast
1:54 AM 64.0 °F 63.0 °F 96% 30.12 in 4.0 mi Calm Calm - N/A   Overcast
2:54 AM 64.0 °F 63.0 °F 96% 30.12 in 5.0 mi Calm Calm - N/A   Overcast
3:40 AM 64.4 °F 62.6 °F 94% 30.13 in 5.0 mi Calm Calm - N/A   Overcast
3:54 AM 64.9 °F 63.0 °F 93% 30.12 in 5.0 mi Calm Calm - N/A   Overcast
4:16 AM 64.4 °F 62.6 °F 94% 30.12 in 6.0 mi Calm Calm - N/A   Overcast
4:54 AM 64.9 °F 63.0 °F 93% 30.12 in 7.0 mi Calm Calm - N/A   Overcast
5:16 AM 64.4 °F 62.6 °F 94% 30.14 in 6.0 mi NW 3.5 mph - N/A   Overcast
5:54 AM 64.0 °F 63.0 °F 96% 30.12 in 4.0 mi Calm Calm - 0.01 in Rain Light Rain
6:30 AM 64.4 °F 62.6 °F 94% 30.13 in 3.0 mi Calm Calm - 0.00 in   Overcast
6:39 AM 64.4 °F 62.6 °F 94% 30.14 in 1.8 mi West 3.5 mph - 0.00 in   Overcast
6:54 AM 64.0 °F 63.0 °F 96% 30.12 in 2.5 mi Calm Calm - 0.00 in   Overcast
7:20 AM 64.4 °F 62.6 °F 94% 30.14 in 1.2 mi Calm Calm - N/A   Overcast
7:39 AM 64.4 °F 62.6 °F 94% 30.14 in 3.0 mi Calm Calm - N/A   Overcast
7:54 AM 64.9 °F 64.0 °F 97% 30.13 in 4.0 mi Calm Calm - N/A   Overcast
8:38 AM 64.4 °F 64.4 °F 100% 30.15 in 2.5 mi Calm Calm - N/A   Overcast
8:54 AM 64.9 °F 64.0 °F 97% 30.14 in 1.0 mi Calm Calm - 0.00 in   Mist
9:03 AM 64.4 °F 64.4 °F 100% 30.14 in 0.8 mi Calm Calm - 0.00 in Rain Light Rain
9:11 AM 64.4 °F 64.4 °F 100% 30.14 in 1.0 mi Calm Calm - 0.00 in   Mist
9:20 AM 64.4 °F 64.4 °F 100% 30.13 in 0.8 mi Calm Calm - 0.00 in   Mist
9:35 AM 64.4 °F 64.4 °F 100% 30.13 in 1.2 mi Calm Calm - 0.00 in   Overcast
9:54 AM 64.9 °F 64.0 °F 97% 30.13 in 1.5 mi Calm Calm - 0.00 in Rain Light Rain
10:02 AM 64.4 °F 64.4 °F 100% 30.14 in 3.0 mi Calm Calm - 0.00 in Rain Light Rain
10:18 AM 66.2 °F 64.4 °F 94% 30.15 in 4.0 mi Calm Calm - 0.00 in Rain Light Rain
10:54 AM 66.0 °F 64.9 °F 96% 30.14 in 4.0 mi SSE 3.5 mph - 0.03 in Rain Light Rain
11:54 AM 66.9 °F 64.9 °F 93% 30.11 in 9.0 mi Calm Calm - 0.02 in Rain Light Rain
12:54 PM 68.0 °F 64.9 °F 90% 30.07 in 10.0 mi SE 8.1 mph - 0.00 in Rain Light Rain
1:54 PM 69.1 °F 63.0 °F 81% 30.08 in 10.0 mi West 6.9 mph - 0.00 in Rain Light Rain
2:36 PM 68.0 °F 64.4 °F 88% 30.09 in 8.0 mi Calm Calm - 0.01 in Rain Light Rain
2:41 PM 68.0 °F 64.4 °F 88% 30.09 in 9.0 mi Calm Calm - 0.01 in Rain Light Rain
2:54 PM 68.0 °F 64.9 °F 90% 30.08 in 5.0 mi Calm Calm - 0.01 in Rain Light Rain
3:28 PM 68.0 °F 64.4 °F 88% 30.09 in 8.0 mi WNW 3.5 mph - 0.01 in   Overcast
3:43 PM 66.2 °F 64.4 °F 94% 30.09 in 7.0 mi NW 3.5 mph - 0.01 in Rain Light Rain
3:54 PM 66.9 °F 64.0 °F 90% 30.08 in 2.5 mi NW 4.6 mph - 0.03 in Rain Rain
4:07 PM 66.2 °F 64.4 °F 94% 30.08 in 1.0 mi Calm Calm - 0.17 in Rain Heavy Rain
4:25 PM 66.2 °F 64.4 °F 94% 30.08 in 2.5 mi Calm Calm - 0.26 in Rain Light Rain
4:33 PM 66.2 °F 64.4 °F 94% 30.08 in 5.0 mi Calm Calm - 0.26 in Rain Light Rain
4:49 PM 66.2 °F 62.6 °F 88% 30.09 in 10.0 mi Calm Calm - 0.27 in Rain Light Rain
4:54 PM 66.0 °F 63.0 °F 90% 30.07 in 8.0 mi Calm Calm - 0.27 in Rain Light Rain
5:04 PM 66.2 °F 62.6 °F 88% 30.07 in 4.0 mi Calm Calm - 0.01 in Rain Light Rain
5:47 PM 64.4 °F 64.4 °F 100% 30.06 in 7.0 mi Calm Calm - 0.04 in Rain Light Rain
5:54 PM 64.9 °F 64.0 °F 97% 30.05 in 6.0 mi SSE 3.5 mph - 0.04 in Rain Light Rain
6:51 PM 64.4 °F 62.6 °F 94% 30.06 in 2.5 mi Calm Calm - 0.00 in   Overcast
6:52 PM 64.0 °F 63.0 °F 96% 30.05 in 2.0 mi Calm Calm - 0.00 in   Overcast
6:57 PM 64.4 °F 62.6 °F 94% 30.06 in 0.8 mi Calm Calm - N/A   Overcast
7:09 PM 64.4 °F 62.6 °F 94% 30.06 in 0.5 mi Calm Calm - N/A Fog Fog
7:19 PM 64.4 °F 62.6 °F 94% 30.06 in 0.2 mi Calm Calm - N/A Fog Fog
7:32 PM 62.6 °F 62.6 °F 100% 30.06 in 0.8 mi Calm Calm - N/A   Overcast
7:43 PM 62.6 °F 62.6 °F 100% 30.06 in 2.0 mi SSE 3.5 mph - N/A   Overcast
7:51 PM 62.6 °F 62.6 °F 100% 30.06 in 3.0 mi Calm Calm - N/A   Overcast
7:54 PM 63.0 °F 62.1 °F 97% 30.05 in 3.0 mi Calm Calm - N/A   Overcast
8:54 PM 63.0 °F 61.0 °F 93% 30.06 in 10.0 mi WSW 4.6 mph - N/A   Overcast
9:54 PM 60.1 °F 57.9 °F 93% 30.07 in 3.0 mi Calm Calm - 0.01 in   Clear
10:07 PM 57.2 °F 55.4 °F 94% 30.08 in 0.2 mi Calm Calm - N/A Fog Fog
10:20 PM 57.2 °F 57.2 °F 100% 30.08 in 0.5 mi Calm Calm - N/A Fog Fog
10:27 PM 57.2 °F 55.4 °F 94% 30.08 in 0.2 mi Calm Calm - N/A Fog Fog
10:54 PM 54.0 °F 54.0 °F 100% 30.07 in 0.5 mi Calm Calm - N/A Fog Fog
11:04 PM 55.4 °F 55.4 °F 100% 30.07 in 0.2 mi Calm Calm - N/A Fog Fog
11:30 PM 53.6 °F 53.6 °F 100% 30.07 in 1.0 mi South 3.5 mph - N/A   Mist
11:39 PM 53.6 °F 51.8 °F 94% 30.06 in 0.5 mi SSE 3.5 mph - N/A Fog Fog
11:50 PM 53.6 °F 51.8 °F 94% 30.06 in 0.5 mi SSE 3.5 mph - N/A Fog Fog
11:54 PM 53.1 °F 52.0 °F 96% 30.05 in 0.5 mi Calm Calm - N/A Fog Fog